North Vernon, Indiana, United States (47265)
Lat: 39.01N, Lon: 85.62W
Wx Zone: INZ072
Local Info
Past Weather Observations for Thursday, April 16, 2015

NOTE: This archive is for the closest National Weather Service station to North Vernon. Information may differ from the station used for current weather conditions.

Click here for Long-term Archive

Time Weather Temperature Dewpoint Humidity Pressure Winds Precip Visibility
23:53
Overcast
Fog And Mist
61°F / 16°C 57°F / 14°C 88% 30.09 in
(1019 mb)
E 3.5 mph
(E 6 kph)
- 6SM
22:53
Overcast
61°F / 16°C 57°F / 14°C 88% 30.09 in
(1019 mb)
Calm - 7SM
22:28
Mostly Cloudy
63°F / 17°C 57°F / 14°C 83% 30.09 in
(1019 mb)
Calm - 8SM
21:53
Clear
61°F / 16°C 57°F / 14°C 88% 30.09 in
(1019 mb)
N 6.9 mph
(N 11 kph)
- 8SM
20:53
Clear
63°F / 17°C 55°F / 13°C 77% 30.06 in
(1018 mb)
Calm - 8SM
19:53
Mostly Cloudy
64°F / 18°C 57°F / 14°C 78% 30.06 in
(1018 mb)
NNW 3.5 mph
(NNW 6 kph)
- 10SM
19:18
Partly Cloudy
66°F / 19°C 57°F / 14°C 73% 30.06 in
(1018 mb)
NW 4.6 mph
(NW 7 kph)
- 10SM
19:09
Mostly Cloudy
66°F / 19°C 59°F / 15°C 78% 30.06 in
(1018 mb)
NW 5.8 mph
(NW 9 kph)
- 10SM
18:53
Partly Cloudy
68°F / 20°C 59°F / 15°C 73% 30.06 in
(1018 mb)
NNW 4.6 mph
(NNW 7 kph)
- 10SM
17:53
Partly Cloudy
72°F / 22°C 59°F / 15°C 65% 30.04 in
(1017 mb)
WNW 9.2 mph
(WNW 15 kph)
- 10SM
16:53
Mostly Cloudy
70°F / 21°C 59°F / 15°C 69% 30.04 in
(1017 mb)
WNW 6.9 mph
(WNW 11 kph)
- 10SM
15:53
Mostly Cloudy
70°F / 21°C 59°F / 15°C 69% 30.04 in
(1017 mb)
Variable 4.6 mph
(Variable 7 kph)
- 10SM
15:08
Overcast
70°F / 21°C 61°F / 16°C 73% 30.06 in
(1018 mb)
NNW 4.6 mph
(NNW 7 kph)
- 10SM
14:53
Overcast
68°F / 20°C 59°F / 15°C 73% 30.06 in
(1018 mb)
NNW 4.6 mph
(NNW 7 kph)
- 10SM
13:53
Overcast
70°F / 21°C 59°F / 15°C 69% 30.06 in
(1018 mb)
SW 10.4 mph
(SW 17 kph)
- 10SM
12:53
Overcast
68°F / 20°C 59°F / 15°C 73% 30.06 in
(1018 mb)
SW 8.1 mph
(SW 13 kph)
- 10SM
12:44
Overcast
66°F / 19°C 59°F / 15°C 78% 30.09 in
(1019 mb)
SSE 9.2 mph
(SSE 15 kph)
- 10SM
11:53
Overcast
64°F / 18°C 57°F / 14°C 78% 30.09 in
(1019 mb)
S 12.7 mph
(S 20 kph)
- 10SM
10:53
Overcast
64°F / 18°C 57°F / 14°C 78% 30.09 in
(1019 mb)
S 10.4 mph
(S 17 kph)
- 10SM
09:53
Overcast
61°F / 16°C 55°F / 13°C 83% 30.09 in
(1019 mb)
S 15 mph
(S 24 kph)
- 10SM
08:53
Overcast
61°F / 16°C 54°F / 12°C 77% 30.09 in
(1019 mb)
S 11.5 mph
(S 19 kph)
- 10SM
08:29
Overcast
59°F / 15°C 54°F / 12°C 82% 30.09 in
(1019 mb)
SSE 11.5 mph
(SSE 19 kph)
- 10SM
08:03
Overcast
57°F / 14°C 52°F / 11°C 82% 30.09 in
(1019 mb)
SE 10.4 mph
(SE 17 kph)
- 10SM
07:53
Overcast
57°F / 14°C 52°F / 11°C 82% 30.09 in
(1019 mb)
SE 8.1 mph
(SE 13 kph)
- 10SM
07:36
Overcast
57°F / 14°C 52°F / 11°C 82% 30.09 in
(1019 mb)
SE 4.6 mph
(SE 7 kph)
- 10SM
06:53
Overcast
57°F / 14°C 50°F / 10°C 77% 30.09 in
(1019 mb)
SE 6.9 mph
(SE 11 kph)
- 10SM
05:53
Overcast
55°F / 13°C 50°F / 10°C 82% 30.06 in
(1018 mb)
SE 9.2 mph
(SE 15 kph)
- 10SM
05:31
Overcast
55°F / 13°C 48°F / 9°C 77% 30.06 in
(1018 mb)
SE 9.2 mph
(SE 15 kph)
- 10SM
04:53
Overcast
55°F / 13°C 48°F / 9°C 77% 30.06 in
(1018 mb)
SE 10.4 mph
(SE 17 kph)
- 10SM
04:46
Overcast
55°F / 13°C 48°F / 9°C 77% 30.06 in
(1018 mb)
SE 8.1 mph
(SE 13 kph)
- 10SM
04:10
Overcast
55°F / 13°C 48°F / 9°C 77% 30.09 in
(1019 mb)
SE 5.8 mph
(SE 9 kph)
- 10SM
03:53
Mostly Cloudy
55°F / 13°C 46°F / 8°C 72% 30.09 in
(1019 mb)
SE 8.1 mph
(SE 13 kph)
0.00 in
(0.00 mm)
10SM
02:53
Overcast
Light Rain
55°F / 13°C 46°F / 8°C 72% 30.09 in
(1019 mb)
SE 8.1 mph
(SE 13 kph)
0.00 in
(0.00 mm)
10SM
01:53
Mostly Cloudy
55°F / 13°C 46°F / 8°C 72% 30.09 in
(1019 mb)
E 9.2 mph
(E 15 kph)
- 10SM
00:53
Overcast
55°F / 13°C 48°F / 9°C 77% 30.12 in
(1020 mb)
E 13.8 mph
(E 22 kph)
0.00 in
(0.00 mm)
10SM
Time Weather Temperature Dewpoint Humidity Pressure Winds Precip Visibility


Weather for websites

WeatherForYou.com, LLC is not responsible for any damages or problems caused by this service. Current weather conditions are obtained from the closest station including government and personal stations which may have varying degrees of accuracy. Weather forecasts are derived from the NOAA NDFD. Like all things, this site belongs to Jesus Christ... He just trusts me to maintain it. If you have any questions or comments email webmaster@weatherforyou.com

Copyright © 2015, WeatherForYou.com LLC. All rights reserved.